(347591) = 2001 OJ

Discovered at Haleakala on 2001-07-16 by NEAT.

Orbit

Orbit type: Main Belt

Note: WebGL enabled browser required.

epoch2024-03-31.0
epoch JD2460400.5
perihelion date2022-03-14.74474
perihelion JD2459653.24474
argument of perihelion (°)349.91782
ascending node (°)335.65792
inclination (°)6.28175
eccentricity0.2649327
perihelion distance (AU)1.6720454
Tisserand w.r.t. Jupiter3.6
ΔV w.r.t. Earth (km/sec)8.2
semimajor axis (AU)2.2746833
mean anomaly (°)214.67992
mean daily motion (°/day)0.28729130
aphelion distance (AU)2.877
period (years)3.43
P-vector [x]0.82530750
P-vector [y]-0.51016958
P-vector [z]-0.24206308
Q-vector [x]0.56287965
Q-vector [y]0.70901409
Q-vector [z]0.42481232
absolute magnitude17.55
phase slope0.15
uncertainty0
referenceMPEC 2024-E123
observations used276
oppositions11
arc length (days)8268
first opposition used2001
last opposition used2024
residual rms (arc-secs)0.80
perturbers coarse indicatorM-v
perturbers precise indicator003Ek
first observation date used2001-07-16.0
last observation date used2024-03-05.0
computer nameMPCLINUX
JD of orbit computation2456789.205807
perihelion JD uncertainty (days)1.2905E-04
argument of perihelion uncertainty (°)5.2681E-05
ascending node uncertainty (°)4.4372E-05
inclination uncertainty (°)9.6566E-06
eccentricity uncertainty 9.9805E-08
perihelion distance uncertainty (AU)2.1837E-07
Minimum Orbit Intersection Distances (in AU)
for orbit epoch: 2460400.5, reference: E2024-E73
Mercury1.25749
Venus0.94475
Earth0.66063
Mars0.28753
Jupiter2.46086
Saturn6.30893
Uranus15.5841
Neptune27.4148

Observations

280 total observations over interval: 2001 07 16.53896 – 2024 03 05.301652
These data are available for download (format description).

Date (UT) J2000 RA J2000 Dec Magn Location Ref
2001 07 16.53896 22 45 07.30 -13 32 45.9 20.7   608 – Haleakala-AMOS MPS 32438
2001 07 16.55051 22 45 07.39 -13 32 41.9 20.6   608 – Haleakala-AMOS MPS 32438
2001 07 16.56099 22 45 07.57 -13 32 37.5 19.9   608 – Haleakala-AMOS MPS 32438
2001 07 17.44302 22 45 21.24 -13 27 12.2 19.1   644 – Palomar Mountain/NEAT MPS 32438
2001 07 17.45363 22 45 21.37 -13 27 08.5 19.0   644 – Palomar Mountain/NEAT MPS 32438
2001 07 17.46435 22 45 21.48 -13 27 04.3 18.6   644 – Palomar Mountain/NEAT MPS 32438
2001 07 20.36721 22 45 53.15 -13 09 44.1 18.3   704 – Lincoln Laboratory ETS, New Mexico MPS 32438
2001 07 20.38811 22 45 53.17 -13 09 36.7 18.4   704 – Lincoln Laboratory ETS, New Mexico MPS 32438
2001 07 20.40809 22 45 53.26 -13 09 29.7 18.6   704 – Lincoln Laboratory ETS, New Mexico MPS 32438
2001 08 12.57958 22 38 11.67 -11 17 54.7 19.2   608 – Haleakala-AMOS MPS 32852
2001 08 12.58977 22 38 11.16 -11 17 52.0 19.2   608 – Haleakala-AMOS MPS 32852
2001 08 12.59994 22 38 10.69 -11 17 49.5 19.0   608 – Haleakala-AMOS MPS 32852
2001 08 16.27681 22 35 20.15 -11 03 32.3 18.0   704 – Lincoln Laboratory ETS, New Mexico MPS 32852
2001 08 16.28907 22 35 19.51 -11 03 29.2 18.5   704 – Lincoln Laboratory ETS, New Mexico MPS 32852
2001 08 16.30139 22 35 18.84 -11 03 26.6 18.6   704 – Lincoln Laboratory ETS, New Mexico MPS 32852
2001 08 16.31365 22 35 18.17 -11 03 23.6 18.2   704 – Lincoln Laboratory ETS, New Mexico MPS 32852
2001 08 16.32586 22 35 17.51 -11 03 20.9 18.3   704 – Lincoln Laboratory ETS, New Mexico MPS 32852
2001 08 19.27692 22 32 47.57 -10 52 12.3 18.2   704 – Lincoln Laboratory ETS, New Mexico MPS 33348
2001 08 19.29112 22 32 46.78 -10 52 09.1 18.6   704 – Lincoln Laboratory ETS, New Mexico MPS 33348
2001 08 19.30376 22 32 46.06 -10 52 06.7 18.6   704 – Lincoln Laboratory ETS, New Mexico MPS 33348
2001 08 19.31634 22 32 45.42 -10 52 03.8 18.5   704 – Lincoln Laboratory ETS, New Mexico MPS 33348
2001 08 23.27894 22 29 12.20 -10 37 24.0 17.4 R 699 – Lowell Observatory-LONEOS MPS 33348
2001 08 23.30231 22 29 10.82 -10 37 18.4   699 – Lowell Observatory-LONEOS MPS 33348
2001 08 23.32571 22 29 09.43 -10 37 13.1   699 – Lowell Observatory-LONEOS MPS 33348
2001 08 23.34917 22 29 08.03 -10 37 08.6   699 – Lowell Observatory-LONEOS MPS 33348
2001 08 27.24354 22 25 33.01 -10 22 45.8 17.2 R 699 – Lowell Observatory-LONEOS MPS 33348
2001 08 27.26704 22 25 31.65 -10 22 40.6   699 – Lowell Observatory-LONEOS MPS 33348
2001 08 27.29064 22 25 30.17 -10 22 35.3   699 – Lowell Observatory-LONEOS MPS 33348
2001 08 27.31408 22 25 28.79 -10 22 30.3   699 – Lowell Observatory-LONEOS MPS 33348
2001 09 07.19433 22 15 59.11 -09 40 49.9 18.8   704 – Lincoln Laboratory ETS, New Mexico MPS 34442
2001 09 07.20817 22 15 58.45 -09 40 46.0 18.8   704 – Lincoln Laboratory ETS, New Mexico MPS 34442
2001 09 07.22198 22 15 57.70 -09 40 43.2 19.6   704 – Lincoln Laboratory ETS, New Mexico MPS 34442
2001 09 07.23585 22 15 57.04 -09 40 37.9 19.1   704 – Lincoln Laboratory ETS, New Mexico MPS 34442
2001 09 07.24972 22 15 56.30 -09 40 34.3 19.2   704 – Lincoln Laboratory ETS, New Mexico MPS 34442
2001 09 12.26539 22 12 18.37 -09 19 54.1 18.3   704 – Lincoln Laboratory ETS, New Mexico MPS 34442
2001 09 12.27988 22 12 17.73 -09 19 50.2 18.6   704 – Lincoln Laboratory ETS, New Mexico MPS 34442
2001 09 12.29435 22 12 17.09 -09 19 45.9 18.6   704 – Lincoln Laboratory ETS, New Mexico MPS 34442
2001 09 12.30895 22 12 16.46 -09 19 42.5 18.3   704 – Lincoln Laboratory ETS, New Mexico MPS 34442
2001 09 12.32344 22 12 15.82 -09 19 38.9 18.8   704 – Lincoln Laboratory ETS, New Mexico MPS 34442
2001 09 19.259290 22 08 30.288 -08 48 52.47 18.67 V 645 – Apache Point-Sloan Digital Sky Survey MPS 260213
2001 09 19.262762 22 08 30.183 -08 48 51.51 19.69   645 – Apache Point-Sloan Digital Sky Survey MPS 260213
2001 09 20.18077 22 08 08.23 -08 44 32.7 18.6   704 – Lincoln Laboratory ETS, New Mexico MPS 35820
2001 09 20.19492 22 08 07.83 -08 44 29.3 18.7   704 – Lincoln Laboratory ETS, New Mexico MPS 35820
2001 09 20.20922 22 08 07.47 -08 44 25.0 19.0   704 – Lincoln Laboratory ETS, New Mexico MPS 35820
2001 09 20.22339 22 08 07.09 -08 44 21.4 18.5   704 – Lincoln Laboratory ETS, New Mexico MPS 35820
2001 09 20.23755 22 08 06.70 -08 44 17.3 18.5   704 – Lincoln Laboratory ETS, New Mexico MPS 35820
2001 09 22.18299 22 07 26.24 -08 34 59.5 18.9   704 – Lincoln Laboratory ETS, New Mexico MPS 35820
2001 09 22.19714 22 07 25.87 -08 34 55.0 19.2   704 – Lincoln Laboratory ETS, New Mexico MPS 35820
2001 09 22.21131 22 07 25.55 -08 34 50.6 19.0   704 – Lincoln Laboratory ETS, New Mexico MPS 35820
2001 09 22.22547 22 07 25.21 -08 34 46.7 19.4   704 – Lincoln Laboratory ETS, New Mexico MPS 35820
2001 09 22.23963 22 07 24.88 -08 34 42.5 18.9   704 – Lincoln Laboratory ETS, New Mexico MPS 35820
2001 09 23.19349 22 07 08.33 -08 30 03.7 17.5   704 – Lincoln Laboratory ETS, New Mexico MPS 43569
2001 09 23.20786 22 07 08.04 -08 29 59.4 18.2   704 – Lincoln Laboratory ETS, New Mexico MPS 43569
2001 09 23.22210 22 07 07.75 -08 29 55.2 18.5   704 – Lincoln Laboratory ETS, New Mexico MPS 43569
2001 09 23.23634 22 07 07.44 -08 29 50.4 18.6   704 – Lincoln Laboratory ETS, New Mexico MPS 43569
2001 10 11.10767 22 08 28.53 -06 50 20.8 19.3   644 – Palomar Mountain/NEAT MPS 37697
2001 10 11.12896 22 08 28.98 -06 50 13.0 19.8   644 – Palomar Mountain/NEAT MPS 37697
2001 10 11.15148 22 08 29.46 -06 50 04.8 19.3   644 – Palomar Mountain/NEAT MPS 37697
2001 10 14.09820 22 09 51.68 -06 31 21.6 19.2   704 – Lincoln Laboratory ETS, New Mexico MPS 37697
2001 10 14.13015 22 09 52.55 -06 31 08.7 19.5   704 – Lincoln Laboratory ETS, New Mexico MPS 37697
2001 10 14.14617 22 09 52.97 -06 31 03.9 19.2   704 – Lincoln Laboratory ETS, New Mexico MPS 37697
2001 10 14.16216 22 09 53.44 -06 30 56.5 19.4   704 – Lincoln Laboratory ETS, New Mexico MPS 37697
2001 10 21.07958 22 14 16.58 -05 44 15.0 19.4   704 – Lincoln Laboratory ETS, New Mexico MPS 39177
2001 10 21.09614 22 14 17.21 -05 44 08.4 19.8   704 – Lincoln Laboratory ETS, New Mexico MPS 39177
2001 10 21.11284 22 14 17.94 -05 44 00.9 19.8   704 – Lincoln Laboratory ETS, New Mexico MPS 39177
2001 10 21.12953 22 14 18.66 -05 43 54.0 20.1   704 – Lincoln Laboratory ETS, New Mexico MPS 39177
2001 10 21.14599 22 14 19.30 -05 43 47.5 19.4   704 – Lincoln Laboratory ETS, New Mexico MPS 39177
2007 03 13.31160 11 36 22.46 -00 46 37.4 20.9 V G96 – Mt. Lemmon Survey MPS 260213
2007 03 13.31993 11 36 21.88 -00 46 34.7 21.1 V G96 – Mt. Lemmon Survey MPS 260213
2007 03 13.32819 11 36 21.38 -00 46 32.3 21.0 V G96 – Mt. Lemmon Survey MPS 260213
2007 03 13.33652 11 36 20.84 -00 46 29.7 20.7 V G96 – Mt. Lemmon Survey MPS 260213
2008 09 23.25629 01 15 55.76 +16 32 08.7 19.3 V 703 – Catalina Sky Survey MPS 260213
2008 09 23.26460 01 15 55.26 +16 32 09.5 19.2 V 703 – Catalina Sky Survey MPS 260213
2008 09 23.27284 01 15 54.79 +16 32 09.7 19.1 V 703 – Catalina Sky Survey MPS 260213
2008 09 23.28093 01 15 54.28 +16 32 10.6 19.0 V 703 – Catalina Sky Survey MPS 260213
2008 10 02.34829 01 06 52.63 +16 36 36.2 18.7 V 703 – Catalina Sky Survey MPS 260213
2008 10 02.35668 01 06 52.02 +16 36 35.8 18.5 V 703 – Catalina Sky Survey MPS 260213
2008 10 02.36522 01 06 51.44 +16 36 35.5 18.9 V 703 – Catalina Sky Survey MPS 260213
2008 10 02.37376 01 06 50.90 +16 36 35.7 19.1 V 703 – Catalina Sky Survey MPS 260213
2008 10 08.28252 01 00 31.71 +16 28 24.3 18.8 V G96 – Mt. Lemmon Survey MPS 260213
2008 10 08.28795 01 00 31.35 +16 28 23.7 18.7 V G96 – Mt. Lemmon Survey MPS 260213
2008 10 08.29354 01 00 30.96 +16 28 23.0 18.7 V G96 – Mt. Lemmon Survey MPS 260213
2008 10 08.29898 01 00 30.60 +16 28 22.4 18.7 V G96 – Mt. Lemmon Survey MPS 260213
2008 10 08.35790 01 00 26.60 +16 28 15.1 18.6 V G96 – Mt. Lemmon Survey MPS 260213
2008 10 08.36290 01 00 26.24 +16 28 14.3 18.6 V G96 – Mt. Lemmon Survey MPS 260213
2008 10 08.36802 01 00 25.88 +16 28 13.8 18.6 V G96 – Mt. Lemmon Survey MPS 260213
2008 10 08.37298 01 00 25.56 +16 28 13.0 18.6 V G96 – Mt. Lemmon Survey MPS 260213
2008 10 10.22725 00 58 27.87 +16 24 07.9 18.6 V G96 – Mt. Lemmon Survey MPS 260213
2008 10 10.23277 00 58 27.51 +16 24 07.3 18.6 V G96 – Mt. Lemmon Survey MPS 260213
